1493755200.33,33408,13.38,73994.0,-1.85,-31.61,-31.73,0,*53
1493755201.61,33409,13.31,73994.5,-1.83,-31.57,-31.73,0,*51
1493755202.86,33410,13.31,73994.3,-1.83,-31.67,-31.73,0,*5A
1493755204.12,33411,13.38,73994.3,-1.83,-31.51,-31.67,0,*5B
1493755205.4,33412,13.38,73994.0,-1.83,-31.51,-31.57,0,*5B
1493755206.66,33413,13.38,73996.0,-1.83,-31.33,-31.51,0,*58
1493755207.94,33414,13.38,73994.8,-1.83,-31.39,-31.51,0,*55
1493755209.19,33415,13.38,73994.3,-1.83,-31.33,-31.57,0,*58
1493755210.45,33416,13.38,73994.0,-1.83,-31.51,-31.67,0,*5C
1493755211.7,33417,13.38,73996.0,-1.83,-31.67,-31.85,0,*54
1493755212.96,33418,13.38,73992.5,-1.83,-31.51,-31.67,0,*52
1493755214.21,33419,13.31,73990.8,-1.83,-31.39,-31.67,0,*5D
1493755215.46,33420,13.31,73990.8,-1.83,-31.33,-31.57,0,*5E
1493755216.73,33421,13.38,73996.3,-1.83,-31.73,-32.01,0,*5B
1493755218.01,33422,13.38,73992.8,-1.83,-31.57,-31.73,0,*58
1493755219.23,33423,13.38,73992.3,-1.81,-31.51,-31.67,0,*58
1493755220.46,33424,13.38,73992.5,-1.81,-31.67,-31.91,0,*53
1493755221.75,33425,13.38,73992.8,-1.77,-31.57,-31.91,0,*58
1493755222.98,33426,13.38,73996.3,-1.81,-31.57,-31.67,0,*5B
1493755224.25,33427,13.38,73992.3,-1.83,-31.39,-31.57,0,*53
1493755225.5,33428,13.38,73992.3,-1.81,-31.39,-31.57,0,*5E
1493755226.73,33429,13.38,73994.0,-1.81,-31.67,-31.85,0,*5B
1493755227.98,33430,13.31,73988.0,-1.81,-31.51,-31.57,0,*59
1493755229.24,33431,13.38,73994.8,-1.77,-31.57,-31.79,0,*5B
1493755230.49,33432,13.38,73996.0,-1.81,-31.57,-31.85,0,*52
1493755231.74,33433,13.38,73996.0,-1.81,-31.39,-31.57,0,*54
1493755232.97,33434,13.38,73994.8,-1.81,-31.67,-31.91,0,*52
1493755234.23,33435,13.38,73994.8,-1.77,-31.45,-31.73,0,*56
1493755235.49,33436,13.38,73992.0,-1.81,-31.73,-32.07,0,*59
1493755236.76,33437,13.38,73992.8,-1.77,-31.39,-31.45,0,*5A
1493755238.05,33438,13.31,73994.5,-1.77,-31.11,-31.39,0,*54
1493755239.28,33439,13.31,73994.0,-1.81,-31.33,-31.39,0,*5C
1493755240.51,33440,13.38,73992.8,-1.81,-31.39,-31.67,0,*53
1493755241.77,33441,13.31,73988.0,-1.81,-31.23,-31.39,0,*52
1493755243.01,33442,13.38,73994.5,-1.81,-31.51,-31.73,0,*5A
1493755244.26,33443,13.38,73998.0,-1.75,-31.11,-31.29,0,*5B
1493755245.52,33444,13.38,73992.3,-1.77,-31.29,-31.57,0,*5C
1493755246.76,33445,13.31,73992.8,-1.77,-31.33,-31.45,0,*55
1493755248.0,33446,13.31,73994.5,-1.77,-31.29,-31.45,0,*5D
1493755249.27,33447,13.31,73992.0,-1.77,-31.39,-31.45,0,*5D
1493755250.55,33448,13.38,73994.5,-1.77,-31.39,-31.61,0,*54
1493755251.79,33449,13.38,73996.3,-1.75,-31.29,-31.57,0,*53
1493755253.04,33450,13.38,73996.3,-1.73,-31.51,-31.67,0,*51
1493755254.3,33451,13.38,73992.5,-1.77,-31.45,-31.73,0,*54
1493755255.55,33452,13.38,73996.3,-1.81,-31.51,-31.73,0,*5B
1493755256.81,33453,13.38,73994.8,-1.75,-31.39,-31.61,0,*5C
1493755258.07,33454,13.38,73996.0,-1.75,-31.39,-31.61,0,*5B
1493755259.33,33455,13.38,73994.3,-1.75,-31.57,-31.61,0,*52
1493755260.6,33456,13.38,73994.8,-1.75,-31.61,-31.95,0,*5F
1493755261.86,33457,13.38,73996.0,-1.77,-31.61,-31.79,0,*5E
1493755263.12,33458,13.38,73994.0,-1.77,-31.29,-31.57,0,*51
1493755264.37,33459,13.38,73994.0,-1.77,-31.29,-31.45,0,*53
1493755265.65,33460,13.31,73992.5,-1.77,-31.57,-31.73,0,*55
1493755266.92,33461,13.38,73994.5,-1.77,-31.45,-31.61,0,*54
1493755268.16,33462,13.31,73992.5,-1.77,-31.29,-31.45,0,*5B
1493755269.43,33463,13.31,73992.0,-1.77,-31.29,-31.39,0,*51
1493755270.69,33464,13.38,73994.8,-1.77,-31.11,-31.29,0,*5C
1493755271.92,33465,13.38,73994.8,-1.73,-31.17,-31.33,0,*54
1493755273.16,33466,13.38,73994.0,-1.75,-31.29,-31.57,0,*5E
1493755274.4,33467,13.38,73992.8,-1.75,-31.45,-31.61,0,*50
1493755275.67,33468,13.38,73994.0,-1.73,-31.39,-31.57,0,*57
1493755276.93,33469,13.38,73992.3,-1.75,-31.39,-31.61,0,*55
1493755278.18,33470,13.31,73988.8,-1.73,-31.33,-31.57,0,*54
1493755279.42,33471,13.31,73988.5,-1.75,-31.29,-31.57,0,*58
1493755280.64,33472,13.38,73992.0,-1.73,-31.17,-31.33,0,*52
1493755281.9,33473,13.31,73992.3,-1.73,-31.33,-31.51,0,*51
1493755283.16,33474,13.38,73992.8,-1.75,-31.39,-31.61,0,*59
1493755284.45,33475,13.38,73994.8,-1.73,-31.23,-31.51,0,*56
1493755285.7,33476,13.38,73992.8,-1.73,-31.17,-31.39,0,*5C
1493755286.99,33477,13.38,73992.8,-1.73,-31.23,-31.39,0,*5A
1493755288.21,33478,13.38,73992.3,-1.75,-31.29,-31.45,0,*52
1493755289.45,33479,13.31,73990.8,-1.75,-31.39,-31.45,0,*52
1493755290.7,33480,13.38,73992.5,-1.73,-31.17,-31.39,0,*55
1493755291.96,33481,13.38,73994.0,-1.73,-31.17,-31.39,0,*54
1493755293.19,33482,13.38,73992.8,-1.73,-31.17,-31.33,0,*5D
1493755294.42,33483,13.38,73992.0,-1.73,-31.17,-31.33,0,*5C
1493755295.68,33484,13.38,73994.8,-1.73,-31.17,-31.39,0,*51
1493755296.91,33485,13.38,73994.8,-1.71,-31.33,-31.57,0,*5C
1493755298.17,33486,13.31,73992.5,-1.71,-31.39,-31.51,0,*53
1493755299.4,33487,13.38,73994.8,-1.71,-31.33,-31.57,0,*5E
1493755300.63,33488,13.31,73990.8,-1.71,-31.39,-31.67,0,*58
1493755301.88,33489,13.38,73992.3,-1.71,-31.39,-31.57,0,*5A
1493755303.12,33490,13.38,73992.5,-1.71,-31.33,-31.51,0,*5E
1493755304.35,33491,13.38,73992.5,-1.71,-31.33,-31.57,0,*59
1493755305.62,33492,13.38,73998.0,-1.71,-31.23,-31.39,0,*53
1493755306.82,33493,13.38,73998.3,-1.71,-31.33,-31.67,0,*58
1493755308.05,33494,13.38,73992.3,-1.71,-31.33,-31.57,0,*5C
1493755309.32,33495,13.38,73994.0,-1.71,-31.23,-31.51,0,*5A
1493755310.57,33496,13.38,73992.5,-1.71,-31.51,-31.73,0,*5C
1493755311.84,33497,13.38,73992.8,-1.71,-31.57,-31.85,0,*52
1493755313.07,33498,13.31,73994.3,-1.71,-31.33,-31.57,0,*50
1493755314.33,33499,13.38,73994.8,-1.71,-31.23,-31.57,0,*50
1493755315.58,33500,13.38,73994.8,-1.71,-31.51,-31.73,0,*52
1493755316.82,33501,13.38,73994.5,-1.71,-31.51,-31.67,0,*56
1493755318.02,33502,13.38,73994.0,-1.71,-31.33,-31.67,0,*51
1493755319.3,33503,13.38,73994.3,-1.73,-31.51,-31.73,0,*53
1493755320.55,33504,13.31,73992.0,-1.73,-31.39,-31.67,0,*5F
1493755321.8,33505,13.31,73994.3,-1.73,-31.33,-31.51,0,*51
1493755323.06,33506,13.38,73992.3,-1.73,-31.51,-31.67,0,*53
1493755324.31,33507,13.38,73992.5,-1.71,-31.51,-31.85,0,*5C
1493755325.57,33508,13.38,73990.8,-1.71,-31.51,-31.85,0,*53
1493755326.83,33509,13.38,73992.0,-1.71,-31.51,-31.73,0,*5B
1493755328.08,33510,13.38,73992.0,-1.71,-31.51,-31.85,0,*5A
1493755329.32,33511,13.38,73992.0,-1.71,-31.51,-32.01,0,*54
1493755330.58,33512,13.38,73992.0,-1.71,-31.57,-31.85,0,*5E
1493755331.85,33513,13.38,73992.8,-1.73,-31.39,-31.57,0,*5A
1493755333.11,33514,13.38,73992.0,-1.71,-31.51,-31.73,0,*57
1493755334.37,33515,13.38,73994.0,-1.71,-31.51,-31.85,0,*5F
1493755335.65,33516,13.38,73992.3,-1.73,-31.57,-31.73,0,*51
1493755336.9,33517,13.31,73988.3,-1.73,-31.39,-31.67,0,*5D
1493755338.13,33518,13.38,73992.8,-1.75,-31.61,-31.79,0,*56
1493755339.39,33519,13.38,73994.0,-1.73,-31.57,-31.67,0,*5B
1493755340.67,33520,13.38,73992.3,-1.73,-31.57,-31.91,0,*58
1493755341.93,33521,13.38,73992.0,-1.75,-31.57,-31.73,0,*53
1493755343.22,33522,13.38,73994.5,-1.73,-31.23,-31.51,0,*55
1493755344.45,33523,13.31,73990.5,-1.73,-31.17,-31.33,0,*57
1493755345.7,33524,13.38,73996.8,-1.73,-31.17,-31.39,0,*5A
1493755346.96,33525,13.38,73994.5,-1.73,-31.33,-31.51,0,*53
1493755348.25,33526,13.38,73994.5,-1.73,-31.23,-31.51,0,*51
1493755349.5,33527,13.38,73992.3,-1.73,-31.17,-31.39,0,*59
1493755350.76,33528,13.31,73990.8,-1.73,-31.17,-31.51,0,*58
1493755352.05,33529,13.38,73992.5,-1.73,-31.23,-31.39,0,*50
1493755353.3,33530,13.38,73992.3,-1.73,-31.33,-31.57,0,*51
1493755354.56,33531,13.38,73994.8,-1.73,-31.33,-31.51,0,*56
1493755355.81,33532,13.31,73990.8,-1.73,-31.17,-31.39,0,*5D
1493755357.09,33533,13.38,73994.0,-1.73,-31.23,-31.57,0,*53
1493755358.38,33534,13.31,73990.0,-1.73,-31.23,-31.51,0,*52
1493755359.66,33535,13.38,73992.0,-1.73,-31.23,-31.57,0,*55
1493755360.89,33536,13.38,73994.0,-1.71,-31.05,-31.39,0,*58
1493755362.13,33537,13.31,73992.5,-1.71,-31.17,-31.51,0,*54
1493755363.4,33538,13.38,73994.8,-1.71,-31.23,-31.51,0,*5C
1493755364.6,33539,13.31,73992.0,-1.71,-31.05,-31.33,0,*5D
1493755365.86,33540,13.38,73994.0,-1.73,-31.17,-31.39,0,*58
1493755367.12,33541,13.38,73994.8,-1.71,-31.23,-31.57,0,*54
1493755368.35,33542,13.31,73990.5,-1.71,-31.51,-31.67,0,*51
1493755369.61,33543,13.31,73990.8,-1.71,-31.23,-31.57,0,*56
1493755370.84,33544,13.38,73992.8,-1.71,-31.33,-31.57,0,*50
1493755372.1,33545,13.38,73998.0,-1.71,-31.23,-31.57,0,*50
1493755373.34,33546,13.38,73994.0,-1.69,-31.29,-31.45,0,*53
1493755374.61,33547,13.38,73994.8,-1.71,-31.23,-31.39,0,*5A
1493755375.82,33548,13.38,73992.8,-1.71,-31.17,-31.33,0,*58
1493755377.02,33549,13.31,73990.5,-1.71,-31.05,-31.33,0,*5A
1493755378.26,33550,13.38,73994.0,-1.71,-31.17,-31.51,0,*55
1493755379.52,33551,13.38,73994.3,-1.71,-31.23,-31.57,0,*55
1493755380.76,33552,13.38,73992.0,-1.69,-31.17,-31.45,0,*5B
1493755382.0,33553,13.38,73992.8,-1.71,-31.33,-31.51,0,*50
1493755383.23,33554,13.38,73996.3,-1.71,-31.17,-31.51,0,*51
1493755384.5,33555,13.31,73988.3,-1.71,-31.23,-31.51,0,*57
1493755385.76,33556,13.31,73990.0,-1.71,-31.23,-31.57,0,*52
1493755387.02,33557,13.31,73990.5,-1.71,-31.23,-31.57,0,*53
1493755388.28,33558,13.38,73992.5,-1.69,-31.29,-31.61,0,*5A
1493755389.52,33559,13.31,73988.8,-1.71,-31.29,-31.61,0,*52
1493755390.77,33560,13.38,73994.3,-1.71,-31.39,-31.73,0,*5A
1493755392.0,33561,13.38,73992.3,-1.71,-31.51,-31.67,0,*50
1493755393.26,33562,13.38,73994.8,-1.69,-31.33,-31.61,0,*58
1493755394.47,33563,13.31,73990.5,-1.71,-31.33,-31.67,0,*56
1493755395.71,33564,13.31,73988.3,-1.71,-31.17,-31.51,0,*52
1493755396.97,33565,13.38,73990.0,-1.69,-31.11,-31.33,0,*58
1493755398.2,33566,13.31,73990.5,-1.69,-31.01,-31.29,0,*51
1493755399.46,33567,13.38,73994.8,-1.71,-31.11,-31.57,0,*51
1493755400.7,33568,13.38,73994.0,-1.71,-31.33,-31.51,0,*58
1493755401.94,33569,13.38,73992.5,-1.69,-31.17,-31.45,0,*53
1493755403.17,33570,13.31,73988.8,-1.69,-31.17,-31.45,0,*5B
1493755404.44,33571,13.38,73990.5,-1.69,-31.11,-31.33,0,*5D
1493755405.68,33572,13.31,73990.8,-1.69,-31.17,-31.45,0,*59
1493755406.91,33573,13.38,73992.0,-1.69,-31.17,-31.45,0,*58
1493755408.18,33574,13.31,73990.8,-1.69,-31.11,-31.33,0,*58
1493755409.44,33575,13.38,73992.0,-1.69,-31.17,-31.51,0,*5B
1493755410.68,33576,13.38,73992.8,-1.69,-31.17,-31.45,0,*5D
1493755411.9,33577,13.38,73992.5,-1.69,-31.01,-31.33,0,*5A
1493755413.14,33578,13.38,73994.5,-1.71,-31.17,-31.51,0,*5F
1493755414.38,33579,13.31,73990.5,-1.69,-31.17,-31.45,0,*52
1493755415.64,33580,13.38,73994.5,-1.71,-31.23,-31.57,0,*59
1493755416.85,33581,13.31,73988.8,-1.71,-31.17,-31.33,0,*5D
1493755418.11,33582,13.38,73992.8,-1.71,-31.23,-31.57,0,*5B
1493755419.38,33583,13.38,73994.8,-1.69,-31.11,-31.45,0,*51
1493755420.64,33584,13.38,73994.3,-1.69,-31.29,-31.51,0,*58
1493755421.9,33585,13.31,73992.5,-1.69,-31.11,-31.33,0,*56
1493755423.17,33586,13.31,73992.0,-1.69,-31.11,-31.45,0,*54
1493755424.41,33587,13.38,73992.5,-1.67,-31.11,-31.45,0,*5B
1493755425.67,33588,13.38,73994.3,-1.69,-31.01,-31.51,0,*5E
1493755426.93,33589,13.38,73992.5,-1.69,-31.29,-31.61,0,*56
1493755428.17,33590,13.38,73992.0,-1.69,-31.29,-31.45,0,*58
1493755429.41,33591,13.31,73992.8,-1.67,-31.17,-31.51,0,*5F
1493755430.64,33592,13.38,73992.3,-1.67,-31.17,-31.51,0,*5C
1493755431.93,33593,13.31,73992.8,-1.69,-31.11,-31.51,0,*55
1493755433.17,33594,13.31,73992.8,-1.69,-31.17,-31.45,0,*51
1493755434.43,33595,13.38,73994.0,-1.69,-31.17,-31.51,0,*55
1493755435.69,33596,13.31,73988.0,-1.69,-31.11,-31.33,0,*54
1493755436.95,33597,13.38,73992.5,-1.69,-30.77,-31.01,0,*55
1493755438.19,33598,13.38,73992.0,-1.67,-30.95,-31.29,0,*52
1493755439.4,33599,13.31,73992.8,-1.67,-31.01,-31.29,0,*5F
1493755440.6,33600,13.38,73994.0,-1.67,-31.01,-31.29,0,*5C
1493755441.89,33601,13.31,73992.5,-1.65,-30.89,-31.23,0,*54
1493755443.13,33602,13.31,73994.3,-1.67,-30.77,-31.17,0,*53
1493755444.39,33603,13.31,73992.0,-1.65,-30.89,-31.29,0,*5C
1493755445.63,33604,13.38,73992.5,-1.67,-31.11,-31.33,0,*52
1493755446.87,33605,13.38,73994.3,-1.67,-31.11,-31.33,0,*53
1493755448.13,33606,13.38,73994.5,-1.65,-31.05,-31.39,0,*5D
1493755449.41,33607,13.38,73994.5,-1.65,-30.77,-31.11,0,*52
1493755450.65,33608,13.38,73992.3,-1.67,-30.95,-31.17,0,*55
1493755451.86,33609,13.38,73994.8,-1.67,-31.01,-31.33,0,*5E
1493755453.11,33610,13.38,73994.0,-1.65,-31.05,-31.39,0,*5A
1493755454.37,33611,13.31,73992.3,-1.65,-30.95,-31.29,0,*52
1493755455.61,33612,13.31,73994.0,-1.67,-30.95,-31.17,0,*5E
1493755456.85,33613,13.38,73992.5,-1.67,-30.95,-31.17,0,*5F
1493755458.07,33614,13.38,73992.0,-1.67,-30.83,-31.17,0,*5F
1493755459.32,33615,13.38,73992.0,-1.65,-31.05,-31.39,0,*5F
1493755460.58,33616,13.31,73992.5,-1.65,-30.95,-31.29,0,*55
1493755461.84,33617,13.38,73992.8,-1.65,-30.95,-31.29,0,*54
1493755463.11,33618,13.38,73996.8,-1.65,-31.23,-31.45,0,*5D
1493755464.4,33619,13.31,73992.5,-1.65,-31.23,-31.51,0,*59
1493755465.65,33620,13.38,73992.0,-1.67,-31.11,-31.45,0,*55
1493755466.85,33621,13.38,73992.0,-1.67,-31.01,-31.33,0,*54
1493755468.14,33622,13.38,73994.8,-1.65,-30.89,-31.23,0,*55
1493755469.36,33623,13.31,73992.8,-1.63,-30.83,-31.17,0,*5F
1493755470.65,33624,13.31,73992.5,-1.65,-30.95,-31.23,0,*5E
1493755471.91,33625,13.38,73994.8,-1.65,-30.77,-31.05,0,*57
1493755473.19,33626,13.31,73990.5,-1.65,-30.73,-31.11,0,*55
1493755474.45,33627,13.38,73992.0,-1.65,-30.73,-31.05,0,*51
1493755475.71,33628,13.38,73994.0,-1.65,-30.73,-31.05,0,*5E
1493755476.95,33629,13.38,73992.3,-1.63,-30.89,-31.17,0,*5F
1493755478.21,33630,13.38,73990.8,-1.65,-30.95,-31.29,0,*51
1493755479.45,33631,13.31,73994.0,-1.63,-30.89,-31.17,0,*56
1493755480.69,33632,13.31,73990.3,-1.63,-30.73,-31.17,0,*50
1493755481.9,33633,13.38,73994.3,-1.63,-30.83,-31.17,0,*5E
1493755483.12,33634,13.31,73990.3,-1.63,-30.83,-31.17,0,*59
1493755484.36,33635,13.38,73994.5,-1.61,-30.83,-31.17,0,*5A
1493755485.6,33636,13.38,73992.3,-1.63,-30.73,-31.17,0,*54
1493755486.82,33637,13.38,73992.0,-1.63,-30.83,-31.17,0,*5A
1493755488.03,33638,13.38,73994.0,-1.63,-30.83,-31.17,0,*55
1493755489.27,33639,13.31,73988.3,-1.63,-30.89,-31.33,0,*58
1493755490.47,33640,13.38,73996.0,-1.63,-31.01,-31.33,0,*57
1493755491.72,33641,13.38,73994.0,-1.63,-30.83,-31.23,0,*5C
1493755492.93,33642,13.31,73990.5,-1.63,-30.83,-31.17,0,*58
1493755494.17,33643,13.38,73992.5,-1.63,-30.83,-31.23,0,*5E
1493755495.42,33644,13.31,73994.5,-1.63,-30.83,-31.23,0,*59
1493755496.66,33645,13.31,73992.0,-1.63,-30.83,-31.23,0,*58
1493755497.95,33646,13.31,73994.0,-1.61,-30.89,-31.23,0,*53
1493755499.16,33647,13.31,73992.5,-1.63,-31.01,-31.33,0,*50
1493755500.43,33648,13.31,73990.8,-1.61,-30.83,-31.23,0,*57
1493755501.66,33649,13.38,73994.8,-1.63,-30.89,-31.33,0,*5F
1493755502.87,33650,13.38,73994.5,-1.63,-31.05,-31.33,0,*52
1493755504.11,33651,13.31,73988.0,-1.63,-30.83,-31.23,0,*5D
1493755505.37,33652,13.38,73994.5,-1.61,-30.73,-31.17,0,*54
1493755506.61,33653,13.31,73990.3,-1.63,-30.73,-31.17,0,*57
1493755507.83,33654,13.38,73994.0,-1.63,-30.83,-31.17,0,*5F
1493755509.09,33655,13.38,73990.8,-1.63,-30.89,-31.23,0,*53
1493755510.34,33656,13.31,73988.5,-1.61,-30.83,-31.17,0,*5F
1493755511.57,33657,13.31,73988.5,-1.63,-30.73,-31.17,0,*53
1493755512.85,33658,13.38,73992.8,-1.61,-30.83,-31.23,0,*56
1493755514.05,33659,13.38,73994.0,-1.63,-31.01,-31.33,0,*5F
1493755515.31,33660,13.38,73990.5,-1.63,-30.89,-31.23,0,*55
1493755516.58,33661,13.38,73990.0,-1.61,-30.73,-31.17,0,*54
1493755517.79,33662,13.31,73988.8,-1.63,-30.67,-31.05,0,*53
1493755519.03,33663,13.38,73992.5,-1.63,-30.73,-31.05,0,*57
1493755520.27,33664,13.38,73994.3,-1.63,-30.73,-31.17,0,*53
1493755521.5,33665,13.38,73994.8,-1.63,-30.73,-31.05,0,*51
1493755522.74,33666,13.38,73994.5,-1.61,-30.83,-31.17,0,*5C
1493755524.01,33667,13.38,73990.5,-1.61,-30.73,-31.01,0,*55
1493755525.27,33668,13.38,73994.0,-1.61,-30.73,-31.05,0,*5E
1493755526.53,33669,13.38,73994.0,-1.61,-30.73,-31.05,0,*5F
1493755527.76,33670,13.38,73992.3,-1.63,-30.61,-31.01,0,*52
1493755528.97,33671,13.38,73992.5,-1.63,-30.67,-31.01,0,*55
1493755530.24,33672,13.31,73990.5,-1.63,-30.73,-30.89,0,*52
1493755531.48,33673,13.31,73988.8,-1.61,-30.83,-31.17,0,*58
1493755532.75,33674,13.38,73992.3,-1.61,-30.61,-30.83,0,*5F
1493755534.01,33675,13.31,73992.3,-1.63,-30.51,-30.89,0,*55
1493755535.26,33676,13.31,73988.0,-1.61,-30.33,-30.83,0,*5A
1493755536.5,33677,13.38,73994.5,-1.61,-30.33,-30.83,0,*5B
1493755537.77,33678,13.31,73992.0,-1.61,-30.33,-30.73,0,*5B
1493755539.03,33679,13.31,73990.5,-1.61,-30.33,-30.73,0,*5A
1493755540.29,33680,13.38,73992.3,-1.61,-30.45,-30.73,0,*5D
1493755541.56,33681,13.31,73990.3,-1.59,-30.39,-30.77,0,*58
1493755542.8,33682,13.31,73992.5,-1.59,-30.45,-30.77,0,*50
1493755544.07,33683,13.38,73994.5,-1.59,-30.39,-30.77,0,*5A
1493755545.28,33684,13.38,73994.5,-1.59,-30.45,-30.83,0,*5D
1493755546.53,33685,13.38,73994.5,-1.59,-30.61,-30.83,0,*5A
1493755547.76,33686,13.38,73992.3,-1.59,-30.61,-31.01,0,*52
1493755549.0,33687,13.31,73990.0,-1.61,-30.67,-31.01,0,*5E
1493755550.26,33688,13.38,73990.0,-1.61,-30.73,-31.17,0,*53
1493755551.49,33689,13.38,73992.0,-1.59,-30.45,-30.95,0,*57
1493755552.73,33690,13.38,73992.8,-1.59,-30.61,-31.01,0,*55
1493755553.99,33691,13.38,73992.0,-1.61,-30.73,-31.05,0,*58
1493755555.23,33692,13.31,73990.8,-1.59,-30.61,-31.01,0,*57
1493755556.49,33693,13.31,73988.8,-1.59,-30.55,-30.77,0,*51
1493755557.71,33694,13.31,73988.0,-1.59,-30.45,-30.83,0,*5C
1493755558.94,33695,13.38,73994.3,-1.59,-30.61,-31.01,0,*50
1493755560.18,33696,13.38,73992.0,-1.59,-30.55,-30.83,0,*5F
1493755561.4,33697,13.31,73988.5,-1.59,-30.23,-30.67,0,*55
1493755562.62,33698,13.31,73990.5,-1.59,-30.23,-30.67,0,*5A
1493755563.84,33699,13.38,73992.3,-1.59,-30.27,-30.67,0,*5F
1493755565.08,33700,13.38,73990.3,-1.59,-30.39,-30.67,0,*51
1493755566.32,33701,13.31,73990.3,-1.59,-30.23,-30.61,0,*5D
1493755567.53,33702,13.38,73996.0,-1.59,-30.11,-30.45,0,*59
1493755568.77,33703,13.38,73988.8,-1.59,-30.05,-30.45,0,*5D
1493755570.01,33704,13.38,73992.3,-1.59,-30.11,-30.61,0,*59
1493755571.26,33705,13.31,73988.5,-1.59,-30.11,-30.61,0,*58
1493755572.47,33706,13.38,73990.8,-1.59,-29.95,-30.45,0,*59
1493755573.71,33707,13.38,73992.0,-1.55,-30.11,-30.55,0,*51
1493755574.97,33708,13.38,73994.0,-1.59,-30.05,-30.39,0,*5D
1493755576.2,33709,13.31,73992.0,-1.59,-30.05,-30.45,0,*57
1493755577.44,33710,13.31,73992.5,-1.59,-29.95,-30.39,0,*55
1493755578.72,33711,13.38,73992.0,-1.53,-30.05,-30.39,0,*5F
1493755579.96,33712,13.31,73990.5,-1.55,-30.05,-30.45,0,*51
1493755581.19,33713,13.38,73990.3,-1.55,-29.95,-30.39,0,*5A
1493755582.46,33714,13.38,73992.8,-1.53,-29.89,-30.33,0,*5C
1493755583.72,33715,13.31,73986.8,-1.53,-30.05,-30.33,0,*51
1493755584.99,33716,13.38,73992.3,-1.53,-29.83,-30.17,0,*52
1493755586.23,33717,13.31,73990.5,-1.53,-29.83,-30.23,0,*54
1493755587.46,33718,13.31,73988.8,-1.51,-29.89,-30.23,0,*53
1493755588.7,33719,13.38,73992.5,-1.51,-29.83,-30.05,0,*5C
1493755589.96,33720,13.31,73990.8,-1.53,-29.67,-30.05,0,*5E
1493755591.24,33721,13.31,73990.5,-1.53,-29.73,-30.05,0,*5A
1493755592.48,33722,13.38,73992.0,-1.53,-29.83,-30.23,0,*52
1493755593.74,33723,13.31,73988.0,-1.51,-29.73,-30.17,0,*59
1493755595.02,33724,13.38,73992.8,-1.53,-30.05,-30.39,0,*59
1493755596.28,33725,13.38,73994.0,-1.53,-30.01,-30.33,0,*56
1493755597.53,33726,13.38,73990.5,-1.51,-30.05,-30.39,0,*59
1493755598.78,33727,13.38,73990.5,-1.51,-30.01,-30.39,0,*5C
1493755600.07,33728,13.38,73994.8,-1.53,-29.89,-30.51,0,*57
1493755601.35,33729,13.38,73992.8,-1.53,-29.73,-30.05,0,*52
1493755602.56,33730,13.38,73992.0,-1.51,-29.83,-30.23,0,*53
1493755603.8,33731,13.38,73990.8,-1.51,-29.89,-30.33,0,*59
1493755605.02,33732,13.31,73990.5,-1.51,-29.83,-30.23,0,*51
1493755606.23,33733,13.38,73992.8,-1.51,-29.83,-30.23,0,*50
1493755607.46,33734,13.31,73988.8,-1.51,-29.73,-30.23,0,*58
1493755608.69,33735,13.38,73990.0,-1.49,-29.67,-29.95,0,*50
1493755609.95,33736,13.38,73992.0,-1.51,-29.73,-30.17,0,*5D
1493755611.2,33737,13.38,73994.8,-1.51,-30.05,-30.39,0,*59
1493755612.46,33738,13.31,73988.8,-1.51,-30.01,-30.51,0,*5C
1493755613.7,33739,13.38,73992.8,-1.51,-29.89,-30.33,0,*51
1493755614.93,33740,13.31,73990.3,-1.51,-30.01,-30.33,0,*57
1493755616.14,33741,13.31,73990.8,-1.51,-29.83,-30.23,0,*55
1493755617.37,33742,13.31,73990.8,-1.49,-29.61,-30.11,0,*52
1493755618.61,33743,13.31,73990.3,-1.51,-29.67,-30.05,0,*59
1493755619.84,33744,13.31,73990.3,-1.51,-29.89,-30.23,0,*5A
1493755621.11,33745,13.31,73990.8,-1.51,-29.73,-30.17,0,*59
1493755622.37,33746,13.31,73988.8,-1.49,-29.83,-30.17,0,*5C
1493755623.63,33747,13.38,73992.0,-1.49,-29.67,-30.01,0,*50
1493755624.86,33748,13.38,73994.0,-1.49,-29.67,-30.11,0,*5E
1493755626.12,33749,13.31,73990.3,-1.49,-29.67,-30.01,0,*5E
1493755627.36,33750,13.31,73992.0,-1.51,-29.67,-30.17,0,*58
1493755628.65,33751,13.38,73992.8,-1.53,-29.73,-30.17,0,*5E
1493755629.86,33752,13.31,73992.5,-1.51,-29.83,-30.23,0,*57
1493755631.13,33753,13.31,73992.3,-1.53,-29.89,-30.33,0,*5F
1493755632.4,33754,13.31,73990.3,-1.49,-29.51,-29.83,0,*55
1493755633.66,33755,13.31,73990.8,-1.49,-29.61,-30.01,0,*55
1493755634.89,33756,13.38,73992.5,-1.49,-29.67,-30.11,0,*51
1493755636.15,33757,13.31,73992.3,-1.49,-29.67,-30.01,0,*51
1493755637.41,33758,13.31,73990.8,-1.49,-29.51,-29.95,0,*5E
1493755638.68,33759,13.31,73990.5,-1.47,-29.67,-30.01,0,*51
1493755639.92,33760,13.38,73994.0,-1.47,-29.67,-30.27,0,*5F
1493755641.18,33761,13.38,73992.5,-1.49,-29.67,-30.01,0,*54
1493755642.44,33762,13.38,73994.0,-1.49,-29.67,-30.01,0,*57
1493755643.67,33763,13.38,73994.0,-1.49,-29.61,-30.11,0,*51
1493755644.93,33764,13.31,73988.8,-1.49,-29.51,-29.95,0,*51
1493755646.2,33765,13.38,73994.8,-1.47,-29.67,-30.01,0,*5E
1493755647.43,33766,13.38,73992.8,-1.49,-29.83,-30.27,0,*5D
1493755648.69,33767,13.31,73994.5,-1.49,-29.79,-30.17,0,*5A
1493755649.95,33768,13.31,73992.0,-1.49,-29.67,-30.01,0,*5D
1493755651.19,33769,13.38,73994.8,-1.49,-29.45,-29.67,0,*54
1493755652.45,33770,13.31,73990.8,-1.47,-29.39,-29.79,0,*56
1493755653.7,33771,13.31,73990.5,-1.47,-29.45,-29.83,0,*59
1493755654.96,33772,13.31,73990.5,-1.49,-29.39,-29.83,0,*5F
1493755656.23,33773,13.38,73994.8,-1.47,-29.51,-29.95,0,*59
1493755657.49,33774,13.38,73994.8,-1.47,-29.61,-30.01,0,*58
1493755658.76,33775,13.31,73992.3,-1.49,-29.51,-29.95,0,*51
1493755660.02,33776,13.38,73994.0,-1.49,-29.51,-29.95,0,*52
1493755661.25,33777,13.38,73992.0,-1.49,-29.67,-29.95,0,*56
1493755662.52,33778,13.31,73992.3,-1.47,-29.61,-30.01,0,*54
1493755663.79,33779,13.31,73990.8,-1.47,-29.67,-30.17,0,*54
1493755665.05,33780,13.31,73992.5,-1.47,-29.79,-30.17,0,*5D
1493755666.32,33781,13.31,73990.0,-1.47,-29.79,-30.17,0,*5C
1493755667.59,33782,13.38,73992.3,-1.47,-29.83,-30.17,0,*5A
1493755668.82,33783,13.31,73992.8,-1.49,-29.79,-30.11,0,*56
1493755670.05,33784,13.38,73992.0,-1.49,-29.67,-30.11,0,*5E
1493755671.28,33785,13.38,73996.3,-1.47,-29.83,-30.11,0,*5B
1493755672.55,33786,13.31,73992.5,-1.47,-29.79,-30.01,0,*5C
1493755673.81,33787,13.38,73992.3,-1.49,-29.67,-30.01,0,*5C
1493755675.05,33788,13.38,73992.3,-1.47,-29.61,-29.95,0,*5E
1493755676.32,33789,13.31,73990.3,-1.47,-29.51,-29.83,0,*5B
1493755677.61,33790,13.31,73994.3,-1.49,-29.51,-30.01,0,*5F
1493755678.87,33791,13.38,73994.8,-1.49,-29.51,-29.95,0,*5B
1493755680.16,33792,13.31,73992.5,-1.49,-29.51,-30.01,0,*5D
1493755681.39,33793,13.38,73992.0,-1.47,-29.61,-30.11,0,*50
1493755682.66,33794,13.31,73992.0,-1.49,-29.67,-30.01,0,*5E
1493755683.95,33795,13.38,73994.8,-1.47,-29.51,-30.01,0,*54
1493755685.18,33796,13.38,73994.8,-1.49,-29.61,-30.11,0,*5B
1493755686.44,33797,13.31,73990.0,-1.49,-29.61,-30.01,0,*5B
1493755687.68,33798,13.38,73994.5,-1.47,-29.67,-30.11,0,*5D
1493755688.94,33799,13.38,73996.5,-1.49,-29.67,-30.01,0,*53
1493755690.18,33800,13.38,73994.5,-1.47,-29.67,-30.11,0,*53
1493755691.43,33801,13.38,73994.3,-1.49,-29.61,-30.01,0,*5B
1493755692.69,33802,13.38,73992.5,-1.49,-29.67,-30.01,0,*5E
1493755693.92,33803,13.38,73996.8,-1.49,-29.61,-30.11,0,*58
1493755695.16,33804,13.38,73992.8,-1.47,-29.67,-30.11,0,*57
1493755696.4,33805,13.38,73994.3,-1.47,-29.79,-30.27,0,*5C
1493755697.66,33806,13.31,73994.5,-1.49,-29.79,-30.17,0,*52
1493755698.89,33807,13.38,73994.5,-1.47,-29.61,-29.95,0,*56